Flag for U.S.A. Weather past 2 weeks in Germantown, Maryland, U.S.A.

Now
86 °F

Broken clouds.


Feels Like: 89 °F
Forecast: 64 / 85 °F
Wind: 5 mph from North

Location: Frederick Municipal Airport

Current Time: Aug 4, 2015 at 8:07:17 PM

Latest Report: Aug 4, 2015 at 6:50 PM


Visibility: 10 mi

Pressure: 29.91 "Hg

Humidity: 55%

Dew point: 68 °F

Location of GermantownLocation

Historic Weather in Germantown — Graph

°F

Germantown temperature yesterday

Maximum temperature yesterday: 91 °F (at 3:45 PM)
Minimum temperature yesterday: 63 °F (at 3:30 AM)
Average temperature yesterday: 73 °F

Past Weeks' High & Low Weather Summary

 TemperatureHumidityPressure
High93 °F (Jul 29, 9:55 AM)100% (Jul 20, 11:30 PM)30.06 "Hg (Jul 20, 11:30 PM)
Low55 °F (Jul 24, 4:40 AM)16% (Jul 20, 7:59 PM)29.67 "Hg (Jul 21, 3:59 PM)
Average73 °F82%29.94 "Hg
* Reported Jul 20 5:59 PM — Aug 4 5:45 PM, Germantown, Weather by CustomWeather, © 2015

Note: Actual official high and low records may vary slightly from our data, if they occured in-between our weather recording intervals... More about our weather records

Advertising

Germantown weather history for previous 24 hours

 ConditionsComfort  
Time TempWeatherWind HumidityBarometerVisibility
5:45 PM
Tue, Aug 4
88 °FBroken clouds.6 mph46%29.90 "Hg10 mi
4:59 PM90 °FScattered clouds.5 mph43%29.91 "Hg10 mi
2:47 PM90 °FScattered clouds.5 mph46%29.94 "Hg10 mi
1:45 PM90 °FSunny.16 mph46%29.95 "Hg10 mi
12:45 PM88 °FBroken clouds.12 mph55%29.96 "Hg10 mi
11:50 AM84 °FSunny.13 mph62%29.97 "Hg10 mi
10:47 AM82 °FSunny.7 mph66%29.97 "Hg10 mi
9:50 AM81 °FSunny.10 mph70%29.96 "Hg10 mi
6:50 AM66 °FClear.5 mph100%29.94 "Hg10 mi
6:25 AM68 °FClear.3 mph100%29.92 "Hg10 mi
6:10 AM68 °FClear.6 mph100%29.92 "Hg7 mi
5:50 AM68 °FClear.No wind100%29.92 "Hg10 mi
5:30 AM68 °FThundershowers. Passing clouds.7 mph100%29.92 "Hg10 mi
5:10 AM68 °FThundershowers. Partly cloudy.8 mph100%29.87 "Hg10 mi
4:50 AM72 °FThunderstorms. Mostly cloudy.13 mph83%29.97 "Hg7 mi
4:30 AM72 °FThunderstorms. Passing clouds.No wind88%29.91 "Hg10 mi
4:10 AM72 °FThundershowers. Clear.No wind88%29.90 "Hg10 mi
3:50 AM73 °FThundershowers. Passing clouds.5 mph78%29.89 "Hg10 mi
3:30 AM70 °FThundershowers. Passing clouds.9 mph88%29.90 "Hg10 mi
3:10 AM70 °FThundershowers. Clear.3 mph94%29.87 "Hg10 mi
2:50 AM70 °FThundershowers. Passing clouds.5 mph94%29.87 "Hg10 mi
2:30 AM70 °FThundershowers. Clear.3 mph88%29.86 "Hg10 mi
2:10 AM68 °FClear.3 mph94%29.86 "Hg10 mi
1:50 AM72 °FClear.No wind88%29.87 "Hg10 mi
1:30 AM72 °FThundershowers. Clear.3 mph83%29.86 "Hg10 mi
1:10 AM72 °FClear.3 mph88%29.86 "Hg10 mi
12:50 AM72 °FThundershowers. Passing clouds.3 mph83%29.87 "Hg10 mi
12:30 AM72 °FThundershowers. Passing clouds.No wind88%29.86 "Hg10 mi
11:50 PM
Mon, Aug 3
72 °FThundershowers. Passing clouds.No wind88%29.86 "Hg10 mi
11:30 PM73 °FPassing clouds.No wind83%29.85 "Hg10 mi
11:10 PM73 °FPassing clouds.No wind78%29.85 "Hg10 mi
10:50 PM72 °FClear.No wind83%29.84 "Hg10 mi
10:30 PM72 °FClear.No wind88%29.84 "Hg10 mi
9:50 PM77 °FPassing clouds.No wind69%29.85 "Hg10 mi
9:30 PM77 °FPartly cloudy.3 mph69%29.85 "Hg10 mi
9:10 PM77 °FPartly sunny.No wind74%29.85 "Hg10 mi
8:50 PM79 °FScattered clouds.No wind65%29.84 "Hg10 mi
8:30 PM77 °FSunny.3 mph69%29.84 "Hg10 mi
Weather by CustomWeather, © 2015

See weather overviewHow to use our weather pages